Wind_Speed
54 55 56 57 57 57 58 58 57 58 58 59 59 59 59 59 59 59 60 60 61 63 64 65 66 68 68 68 68 67 66 65 64 64 63 62 62 61 60 59 58 58 57 57 56 55 53 52 51 50 50 49 49 50 50 50 50 50 50 50 50 50 49 49 49 48 48 48 49 49 49 48 48 48 48 49 49 49 48 48 47 47 46 47 49 52
53 54 55 55 54 54 55 55 54 54 55 55 56 56 56 57 57 57 58 58 59 60 60 61 62 63 64 64 64 64 63 62 61 61 60 60 60 59 59 57 56 56 55 55 54 53 52 51 50 49 49 48 47 47 48 49 50 50 50 50 50 49 49 48 48 48 48 48 48 48 48 48 48 48 48 47 47 46 46 46 46 45 45 45 47 49
50 50 51 51 51 50 51 51 50 50 49 50 51 52 53 54 55 56 57 58 58 58 59 59 59 60 60 61 60 60 59 58 58 57 57 57 57 57 57 56 55 54 53 52 52 51 50 49 48 47 47 46 46 45 46 47 48 49 50 50 50 49 48 48 47 48 48 48 48 47 47 47 48 47 47 46 45 45 44 44 44 44 44 44 44 44
47 47 47 47 47 47 47 47 46 45 44 44 47 50 52 53 54 56 57 57 58 58 58 58 57 57 57 57 57 56 55 54 54 53 53 53 53 53 54 53 53 52 51 50 49 49 47 46 45 44 44 44 44 44 44 45 46 48 49 50 50 49 48 47 47 47 48 49 49 48 48 47 47 47 46 46 45 44 43 43 44 44 44 43 42 42
45 44 45 45 45 45 44 43 42 40 40 42 45 49 52 54 56 57 57 57 57 57 57 56 55 54 54 53 52 52 51 50 49 48 47 47 48 48 48 49 49 48 48 47 46 45 44 43 42 41 41 42 42 43 43 44 45 46 48 49 49 49 48 47 46 47 48 48 49 49 49 48 47 47 46 45 44 43 43 43 43 44 44 43 42 41
44 43 43 43 43 43 41 40 39 39 41 44 48 51 54 55 57 57 58 57 57 56 55 54 52 51 50 49 48 47 46 44 43 42 42 41 41 42 42 43 43 44 44 43 43 42 41 41 40 39 38 39 40 41 42 42 43 45 47 48 49 48 47 47 46 46 47 48 49 49 49 48 48 47 46 45 43 43 42 43 43 44 44 43 42 41
44 44 43 43 42 41 39 39 39 41 45 49 53 55 56 57 58 58 58 57 56 54 53 51 50 48 46 44 42 41 39 38 37 37 36 36 36 36 37 37 38 38 39 39 39 39 38 37 37 37 37 37 38 39 40 41 42 44 46 47 48 48 47 46 46 46 47 47 48 49 49 48 48 47 45 44 43 42 42 42 43 43 43 43 42 41
45 45 44 43 42 41 40 41 43 46 50 53 56 58 59 59 59 59 58 55 53 52 50 48 46 43 40 38 36 35 34 33 33 32 32 32 32 32 33 33 33 34 34 35 35 35 34 34 34 35 35 36 36 37 38 39 41 43 45 46 47 47 46 45 45 45 46 46 47 48 48 48 47 46 45 44 43 43 43 43 43 43 43 43 42 41
44 45 44 42 41 42 44 46 49 51 53 55 57 59 61 61 61 59 56 54 51 48 46 44 41 38 35 33 31 30 30 30 29 29 29 29 29 29 29 30 30 30 31 31 31 31 31 31 32 33 33 34 35 36 37 39 41 43 45 46 47 47 46 45 44 44 45 45 46 47 47 47 47 46 45 44 44 43 43 43 43 43 43 43 42 41
42 43 44 44 44 45 48 51 54 55 56 57 59 60 61 61 59 58 55 52 49 46 42 39 37 34 32 30 28 28 28 28 27 27 27 27 27 27 27 27 28 28 28 28 28 29 29 29 30 31 32 33 34 35 37 39 41 43 45 47 47 47 46 45 44 44 44 45 45 46 46 47 46 46 45 45 44 44 44 43 43 43 43 43 43 42
44 45 47 48 49 50 52 54 56 57 57 58 59 59 59 57 56 55 53 51 48 44 39 36 33 32 31 29 28 27 27 27 27 27 27 27 26 26 26 26 26 26 26 26 26 27 27 28 29 30 31 32 34 35 37 39 41 43 45 46 47 47 46 45 44 44 44 44 45 45 46 46 46 46 45 45 44 44 44 44 43 43 43 43 43 43
47 49 50 51 52 53 54 55 56 57 57 57 58 58 56 54 52 51 51 49 46 42 37 34 31 30 30 31 30 29 29 29 29 28 28 28 27 27 27 27 28 28 28 28 27 26 26 26 27 29 31 32 34 36 38 39 41 43 45 46 47 46 46 45 45 45 45 45 45 45 46 46 46 46 45 45 45 45 45 44 43 43 43 43 43 43
48 49 50 50 51 52 53 54 54 54 54 55 55 54 54 52 50 49 48 46 43 38 35 33 32 32 31 32 32 32 32 32 31 30 29 29 29 28 28 28 29 29 30 30 28 25 24 24 26 28 30 33 35 37 38 40 41 43 44 45 46 46 46 46 46 46 46 46 46 46 46 47 47 46 46 46 45 45 45 44 44 43 42 42 42 43
48 48 49 48 49 50 50 51 51 51 51 52 52 52 52 51 49 48 46 43 39 35 33 34 35 36 35 35 35 35 35 34 33 32 30 30 29 29 29 30 30 30 31 31 29 26 23 23 25 27 30 32 34 36 38 40 41 42 44 44 45 46 46 46 46 47 47 47 47 47 48 48 48 47 47 46 46 46 46 45 44 43 42 42 42 42
48 49 49 49 49 49 49 48 48 48 48 50 51 51 51 50 48 45 43 39 36 33 33 36 37 38 38 39 39 39 38 38 37 36 35 34 33 33 33 33 33 33 32 31 29 26 24 23 24 26 29 31 33 35 37 39 41 42 43 44 45 45 46 46 47 47 47 48 48 48 49 49 49 48 48 47 47 47 46 45 44 43 42 41 41 41
49 51 51 51 50 49 48 46 45 45 48 50 51 51 50 48 46 42 39 36 34 34 36 38 40 40 40 41 41 41 41 42 42 42 41 40 38 36 35 35 35 34 32 31 29 27 25 24 24 25 27 29 32 34 36 38 40 41 42 43 44 44 45 46 47 47 47 48 48 49 49 49 49 48 48 48 47 47 46 45 44 43 41 40 40 40
49 52 53 52 51 49 47 45 44 46 49 51 51 50 48 46 43 40 37 35 34 36 38 40 40 41 42 45 44 43 42 44 44 43 43 42 39 37 35 36 36 35 33 31 30 28 26 25 24 25 26 27 29 32 34 36 38 39 41 41 42 43 44 45 46 47 47 48 48 49 49 49 49 48 48 48 48 47 47 46 44 43 41 40 40 40
50 53 53 52 51 48 46 44 45 48 50 50 49 48 46 43 40 37 35 34 36 38 40 40 39 41 45 48 47 43 41 43 43 43 42 42 40 37 35 35 35 34 33 32 30 28 27 26 25 24 24 25 26 29 31 33 35 37 38 39 40 42 43 44 46 47 47 48 49 49 49 49 49 49 48 48 48 47 47 46 44 43 42 40 40 39
51 52 52 51 49 47 45 45 46 48 49 48 47 46 44 42 39 36 35 35 37 39 41 39 40 43 48 50 48 44 41 42 42 43 43 42 39 36 33 32 33 33 33 32 31 30 29 27 26 24 23 22 22 24 25 27 30 33 36 38 41 43 44 45 46 47 47 48 49 49 50 50 49 49 49 49 48 48 47 46 45 43 42 41 40 39
50 50 50 48 47 45 45 46 46 47 46 46 45 45 44 42 39 36 35 36 38 40 41 41 44 47 50 50 47 44 41 41 41 42 42 41 38 34 31 31 32 33 33 32 31 30 29 27 25 22 20 18 18 19 20 22 25 29 33 38 41 44 45 46 46 47 47 48 49 49 50 50 50 50 50 49 49 48 47 46 45 44 42 41 40 40
49 49 47 45 44 44 45 46 46 45 45 44 44 44 43 41 39 38 36 37 39 42 45 48 50 50 49 47 45 42 39 39 40 41 41 40 38 34 31 31 32 33 32 31 29 28 26 25 22 20 19 19 19 20 20 22 24 27 32 36 40 43 44 45 46 46 47 47 48 49 50 50 50 50 50 50 49 49 48 47 46 44 43 42 41 40
46 46 44 43 43 44 45 46 45 44 43 43 42 42 41 41 40 39 38 38 40 43 47 49 48 47 46 45 43 40 37 38 40 41 41 41 39 35 32 32 32 32 30 29 28 28 27 26 24 23 22 23 24 24 24 24 25 27 30 34 38 40 42 43 44 45 46 47 48 49 50 50 50 50 50 50 49 49 48 47 46 45 43 42 41 41
42 43 43 43 43 44 45 45 45 44 42 41 41 40 40 40 39 39 39 40 42 43 45 45 45 44 44 43 41 38 37 37 39 40 41 42 40 36 33 33 33 32 31 31 31 31 32 32 30 29 28 29 29 28 27 25 26 27 29 32 35 38 40 41 43 44 46 47 48 49 49 50 50 50 50 49 49 48 47 46 46 45 44 42 42 41
41 43 44 45 45 45 45 45 44 43 42 41 39 39 38 38 38 39 39 40 41 42 43 43 43 43 42 40 39 37 36 36 38 39 40 41 39 37 35 35 36 36 35 34 34 35 36 35 34 32 31 31 30 29 28 26 26 27 29 31 33 36 38 40 41 43 45 47 48 49 49 49 49 49 49 48 48 47 46 46 45 44 43 43 42 42
40 43 45 46 46 45 45 44 43 42 41 39 38 38 37 37 37 37 38 38 39 39 40 40 41 41 40 39 37 36 35 36 37 39 40 40 40 38 37 37 38 39 38 36 34 34 35 34 33 31 30 30 29 28 28 27 27 27 29 30 32 34 36 38 40 42 44 46 48 48 49 49 49 49 48 48 47 46 45 45 44 44 43 43 43 43
39 42 44 45 45 45 44 43 41 39 38 37 36 36 36 36 36 36 36 36 35 35 35 36 37 39 39 38 37 36 36 36 37 38 39 40 40 40 38 38 39 40 39 36 34 33 33 31 30 29 28 28 28 28 28 28 28 29 29 30 31 32 33 35 38 41 43 45 47 48 48 48 48 48 48 47 46 45 45 44 44 43 43 43 43 43
40 42 43 44 44 43 42 40 38 36 35 34 34 34 34 34 34 34 34 33 32 31 32 34 37 39 38 37 37 37 37 37 37 38 39 40 40 39 38 37 37 38 37 35 33 32 31 30 28 27 27 27 27 27 27 28 28 28 28 29 29 30 31 34 37 39 42 44 46 47 47 47 48 47 47 47 46 45 44 44 43 43 43 44 44 44
40 41 42 42 42 40 39 37 36 34 33 32 31 31 31 31 31 31 31 31 30 30 32 35 38 39 39 38 38 37 37 38 38 38 39 39 39 38 37 36 36 36 35 34 32 31 30 29 27 26 26 26 26 26 26 26 26 27 27 27 28 29 30 33 35 38 40 42 44 45 46 46 46 46 46 46 45 45 44 44 43 43 44 44 45 45
39 40 40 39 39 37 36 35 34 33 32 31 30 30 30 30 30 30 30 29 29 30 33 36 38 38 39 39 39 38 38 38 38 38 38 38 38 37 36 36 35 34 34 33 31 29 28 27 26 26 25 25 24 24 24 24 24 24 25 26 27 28 29 31 33 36 38 40 42 43 44 44 45 45 45 45 44 44 43 43 43 44 44 45 45 45
38 38 37 37 36 35 35 34 33 32 31 30 30 29 29 29 29 29 29 29 30 32 35 36 37 37 38 39 40 39 38 37 37 37 38 38 38 37 36 36 35 34 33 32 31 29 26 24 24 24 24 23 23 22 22 21 21 22 23 24 25 26 27 29 31 33 35 37 39 40 42 42 43 43 43 43 42 42 42 42 43 43 44 45 45 45
38 37 36 36 35 34 34 33 32 32 31 30 30 29 29 29 29 28 28 29 31 33 35 36 36 37 38 39 40 40 39 38 37 37 38 38 38 37 37 36 35 33 32 31 31 29 27 24 22 21 22 22 21 21 20 19 19 20 22 23 24 24 25 27 29 31 33 35 37 38 39 40 40 40 40 40 40 40 40 41 41 42 43 44 44 43
37 37 36 36 35 34 34 33 32 32 31 30 30 29 29 29 29 29 29 30 32 33 35 36 37 37 38 38 39 40 40 38 37 37 37 38 38 37 37 36 35 34 31 30 29 29 28 25 22 20 20 20 20 19 18 17 18 19 20 22 22 23 24 25 27 29 31 33 34 36 36 37 37 37 37 37 37 37 38 39 40 40 41 41 41 40
37 37 36 36 35 34 33 33 32 32 31 31 30 30 30 30 30 30 30 31 32 33 34 35 36 37 38 38 38 39 39 38 37 37 36 37 37 37 37 36 35 34 32 30 28 28 27 26 24 21 20 19 18 17 16 16 16 18 19 21 21 22 23 24 26 27 29 31 32 33 34 34 34 35 34 35 35 35 36 37 37 38 38 37 37 36
37 36 36 35 34 34 33 32 32 31 31 31 31 30 30 30 31 31 31 32 33 34 34 35 36 37 37 38 38 39 38 37 36 35 35 36 36 37 36 36 35 33 32 30 28 27 26 25 24 23 21 19 17 16 15 14 15 17 19 20 21 21 23 24 25 26 28 29 30 31 31 32 32 32 32 32 33 33 34 35 35 35 35 34 34 33
36 36 35 35 34 34 33 32 32 32 31 31 31 31 31 31 32 32 32 33 33 34 35 35 35 36 36 36 37 38 38 36 35 34 34 34 34 35 36 35 34 33 31 30 28 27 26 25 24 23 22 19 16 14 13 13 15 16 18 19 20 21 22 23 24 25 26 27 28 28 29 29 29 29 29 30 30 31 32 33 33 33 33 33 32 32
36 35 35 34 34 34 33 33 33 32 32 32 32 32 32 33 33 33 34 34 34 35 35 35 35 35 35 36 36 37 37 36 34 33 32 32 32 33 34 34 33 31 30 29 28 27 26 25 23 22 21 20 16 13 11 12 14 16 17 18 18 19 21 22 23 24 24 25 25 26 27 27 27 27 27 28 29 29 30 30 31 31 31 32 32 32
35 35 34 34 34 34 34 34 33 33 33 33 33 34 34 34 34 35 35 35 35 35 35 35 35 34 34 35 35 36 36 35 33 32 30 30 31 31 32 32 31 30 29 28 27 26 26 24 23 21 20 18 16 12 10 11 13 15 15 16 16 17 19 20 21 22 22 22 23 24 24 25 25 25 26 26 26 26 26 27 28 29 30 31 31 31
35 35 34 34 34 35 35 35 35 35 35 35 35 35 35 35 35 35 35 35 35 35 35 34 34 34 33 33 34 34 33 33 31 30 29 28 29 30 31 31 30 28 27 27 26 26 25 24 22 20 18 16 14 11 10 10 12 13 14 14 15 16 17 19 20 20 20 20 21 21 22 22 23 23 24 23 23 22 23 24 25 27 28 29 30 30
34 35 35 35 35 36 36 36 36 36 36 37 37 36 36 36 35 35 35 34 34 34 33 33 33 32 32 32 32 31 31 30 29 28 27 27 28 28 29 29 28 27 26 25 25 25 24 23 22 19 17 15 12 10 10 10 11 12 13 13 13 15 16 17 17 17 17 17 17 18 19 19 20 20 20 20 20 20 20 22 23 25 27 28 29 30
35 35 35 36 36 36 37 37 37 38 38 38 37 36 36 35 34 34 33 33 32 32 31 31 31 31 30 30 29 28 27 27 26 26 26 26 26 26 27 27 26 25 25 24 24 23 23 22 20 18 16 14 11 10 10 10 11 12 12 12 12 13 15 15 14 14 14 14 14 14 15 16 16 17 17 18 18 19 20 21 22 23 25 26 27 28
35 36 36 36 37 37 38 38 38 38 37 37 36 35 34 33 32 32 32 31 31 30 30 29 29 29 28 27 26 25 24 24 24 24 24 24 24 24 24 24 24 24 23 22 22 21 21 20 19 17 15 13 11 10 10 10 11 12 12 12 13 14 14 13 12 11 10 11 11 12 13 14 14 15 16 16 17 18 18 19 20 20 21 21 22 23
36 37 37 38 38 38 38 38 37 37 36 35 34 33 32 31 30 30 31 30 30 29 28 28 28 27 26 25 23 22 21 21 21 21 21 21 21 21 21 21 21 21 21 20 19 19 18 18 17 16 14 13 11 11 11 11 12 12 13 13 14 15 15 13 12 10 10 9 10 11 13 13 14 14 14 15 15 15 15 15 15 16 16 17 17 19
37 37 38 38 38 38 38 37 36 35 34 33 32 31 30 29 29 29 29 28 28 27 27 26 26 25 24 22 21 19 19 18 18 18 18 18 18 18 18 18 18 18 18 18 18 17 17 17 16 15 14 13 12 12 11 11 12 13 14 15 16 16 16 15 13 12 10 10 11 12 13 14 14 13 13 13 12 12 12 12 12 12 13 14 15 17
38 38 38 38 37 37 36 35 35 34 33 32 31 30 29 28 27 27 26 26 25 25 25 24 23 22 21 19 18 17 16 15 15 16 16 16 16 16 16 16 16 16 15 16 16 16 16 15 15 15 14 14 13 12 12 12 12 13 15 16 17 18 18 17 15 12 11 11 12 13 13 13 12 12 11 10 10 10 10 10 11 12 14 15 17 20
37 37 37 36 36 35 34 34 33 32 32 31 30 29 27 26 25 24 24 23 23 22 22 21 20 19 17 15 14 14 14 14 14 14 14 15 15 15 15 15 15 15 14 15 15 15 15 15 15 14 14 14 13 12 12 12 13 14 16 17 18 19 19 18 16 13 11 12 12 12 11 10 9 9 9 9 11 12 13 14 15 17 18 20 22 24
36 35 35 35 34 34 33 32 32 31 30 29 28 27 26 24 23 21 21 21 21 20 19 18 17 16 16 15 14 14 15 15 14 14 14 14 14 13 13 13 13 13 14 14 13 13 13 13 13 13 14 13 13 12 12 13 14 15 17 18 20 20 20 19 17 15 12 11 10 9 8 7 7 8 10 12 14 16 17 18 20 21 22 23 25 26
34 34 34 33 33 32 32 31 30 29 29 27 26 24 23 21 20 19 19 19 19 18 17 16 15 15 15 15 16 16 16 16 15 14 14 13 13 12 11 11 11 11 11 12 12 11 11 11 11 12 13 13 13 13 13 14 15 16 18 19 21 22 22 21 19 16 14 12 10 9 9 9 10 12 14 16 18 20 22 22 23 24 24 25 26 26
32 32 33 32 32 31 31 30 29 28 27 25 23 21 20 18 18 18 18 18 18 17 17 16 15 15 15 16 16 16 16 15 15 13 12 11 10 10 9 9 8 8 8 9 9 9 9 9 10 11 12 12 13 13 14 15 16 17 19 20 22 22 22 21 19 17 15 14 13 13 14 14 15 17 18 20 22 23 24 25 26 26 26 26 26 26
31 31 31 31 31 30 29 28 27 26 25 23 21 19 18 17 17 18 19 18 18 17 17 16 16 16 15 15 14 14 14 13 12 10 9 8 7 6 5 5 5 5 5 6 6 7 7 8 9 10 11 12 13 14 15 16 17 18 19 21 22 23 22 21 19 18 17 16 17 17 18 18 19 19 20 22 24 25 25 25 26 26 26 26 26 26
30 30 30 29 28 28 27 26 25 24 23 21 20 19 18 18 18 18 18 18 18 17 17 16 16 15 15 14 13 12 10 9 7 6 5 4 3 2 1 2 2 2 2 3 4 4 5 6 7 8 10 11 12 14 16 17 18 19 20 22 23 22 21 20 19 18 18 18 19 20 20 20 20 20 20 21 22 23 24 24 24 24 24 24 25 25
29 28 27 27 26 25 25 24 23 22 21 20 20 20 20 20 20 19 19 18 17 17 16 15 15 14 13 12 11 9 8 6 5 3 3 2 2 2 2 2 3 3 4 4 4 4 4 5 6 7 8 10 12 14 16 17 19 20 22 23 23 22 21 20 20 20 20 20 20 21 20 20 20 20 20 20 21 21 22 22 22 22 22 23 23 24
Wind_Direction
299 299 299 300 300 299 299 299 298 298 296 295 294 293 292 291 290 289 288 287 287 287 287 286 286 285 285 284 284 284 284 284 284 284 283 283 282 281 281 280 280 279 279 278 277 275 273 271 269 268 266 265 264 262 260 259 258 257 256 256 256 257 258 260 261 262 263 263 264 265 265 264 262 260 258 257 256 255 254 254 253 253 253 251 250 248
300 300 301 301 302 302 301 301 301 300 299 298 297 296 296 295 295 294 294 293 293 293 292 292 291 290 289 288 287 287 286 286 285 285 284 284 283 282 281 281 280 280 279 279 279 278 276 274 271 269 267 266 264 262 260 258 257 256 255 254 254 254 255 256 258 260 261 262 262 262 263 262 261 260 258 257 256 255 255 254 255 255 255 255 255 253
302 302 303 304 305 305 304 304 303 302 302 301 300 299 298 298 298 298 298 298 298 297 297 296 296 294 293 291 290 289 288 288 287 287 286 285 284 283 282 281 280 279 279 278 278 278 277 275 273 270 267 266 264 262 259 258 256 255 255 254 253 252 252 253 256 258 259 260 260 260 260 260 260 260 259 258 257 256 256 255 254 254 255 255 255 254
303 303 305 307 308 307 306 305 305 304 303 301 300 299 299 300 300 301 301 301 301 300 299 299 298 297 295 294 292 291 290 290 289 288 287 286 285 284 283 282 281 280 278 277 276 276 276 275 273 271 268 265 263 261 259 257 255 254 254 253 252 251 250 251 253 255 257 258 259 259 259 259 259 259 259 259 258 257 257 256 255 254 254 254 254 253
305 306 307 308 308 308 307 306 305 303 300 297 296 297 299 300 302 302 302 302 302 302 301 300 299 298 296 295 294 293 292 291 290 289 288 287 286 285 284 283 282 281 280 278 277 275 275 274 273 270 267 264 261 259 258 256 254 253 252 251 251 250 249 249 250 252 254 255 257 257 258 258 258 259 259 258 257 257 256 256 255 254 253 253 253 253
307 307 309 309 309 308 307 305 301 297 294 292 292 295 298 300 302 303 303 303 302 301 300 299 298 297 296 295 294 293 293 292 291 290 289 288 287 286 285 284 283 282 281 279 277 275 274 272 270 268 265 262 259 257 256 254 252 251 250 249 249 249 248 248 248 249 251 252 254 255 255 256 256 257 257 257 256 256 255 255 255 254 253 252 252 252
308 308 310 310 309 307 304 299 294 291 290 291 293 296 299 301 302 303 303 303 302 301 300 298 297 296 296 295 295 295 294 293 293 292 291 290 288 287 286 285 284 283 281 279 277 275 273 270 268 265 262 259 257 255 254 252 250 248 247 247 247 247 247 247 247 248 249 250 251 252 253 253 254 254 254 255 255 255 254 254 254 253 252 252 252 252
308 309 310 310 308 303 297 292 289 289 290 292 295 298 300 302 302 303 303 303 302 302 301 300 299 298 298 298 298 297 297 296 295 294 293 292 291 290 288 287 285 283 281 279 277 274 271 268 265 262 259 257 254 252 251 249 247 246 245 245 246 246 246 246 247 247 248 249 250 250 251 251 252 252 252 253 253 254 254 254 253 252 252 251 251 251
306 307 306 304 300 296 292 290 289 290 292 294 296 299 301 303 303 304 304 304 304 304 304 304 303 302 302 301 301 300 299 298 297 297 296 296 295 293 291 289 286 284 281 278 275 272 269 265 262 259 256 254 251 249 248 246 245 244 243 243 243 244 244 244 245 246 247 248 248 249 249 250 250 250 251 251 252 252 253 253 252 252 251 251 250 250
298 298 296 293 291 290 290 291 291 292 293 295 297 299 301 303 305 306 307 307 307 307 307 306 306 306 305 304 303 302 301 300 299 298 298 297 295 294 292 291 289 286 283 279 275 270 266 262 258 255 253 250 248 247 246 245 243 243 242 242 242 242 242 242 243 244 246 246 247 247 248 248 249 249 250 250 250 251 251 251 251 251 250 250 250 250
292 291 290 290 289 290 291 292 293 294 296 297 298 300 302 304 306 308 309 309 309 308 307 306 306 306 306 306 305 304 303 301 300 300 299 298 297 296 296 296 295 293 288 282 276 270 264 259 255 252 249 247 245 244 244 243 242 242 241 241 240 240 240 240 241 242 244 245 245 245 246 246 247 248 249 249 250 250 250 250 250 249 249 249 249 249
294 293 293 293 293 293 294 295 295 296 298 299 300 302 303 305 307 308 308 309 308 308 307 306 305 305 306 307 307 306 306 305 305 305 305 304 303 302 302 302 302 299 295 288 280 272 264 258 253 248 246 244 243 242 242 241 241 240 240 240 239 239 239 238 239 240 241 242 243 243 244 244 245 246 247 248 249 249 249 249 249 249 248 248 248 248
298 298 297 297 297 297 298 298 299 300 300 301 302 303 304 305 307 307 307 307 306 306 305 305 305 304 305 306 308 309 309 309 309 308 306 304 302 299 297 295 293 292 290 287 283 276 267 259 252 247 244 242 241 241 240 240 239 239 239 238 238 238 238 237 237 238 239 240 241 241 242 243 243 243 244 245 247 248 248 248 248 248 247 247 247 247
302 302 301 300 300 300 301 301 302 303 303 303 303 303 304 306 307 307 306 304 303 304 305 305 305 306 306 308 308 308 307 305 303 301 298 295 291 289 288 286 284 283 284 285 284 279 271 262 254 248 244 241 240 240 239 238 238 237 237 237 238 237 237 237 237 237 237 238 238 240 240 241 241 242 242 243 244 245 247 247 247 247 247 247 246 246
306 305 304 303 302 302 302 303 304 304 303 302 302 303 304 305 306 305 304 302 302 303 305 306 307 308 308 308 305 303 300 299 297 295 293 290 288 287 288 287 287 286 286 286 285 282 276 268 259 252 246 243 241 240 239 238 237 236 236 236 237 237 237 237 237 236 237 237 237 239 240 241 241 241 241 242 243 244 245 246 246 247 246 246 246 246
307 305 303 303 303 303 303 304 304 302 300 300 301 302 304 304 304 304 302 300 301 303 306 309 310 309 306 302 299 297 297 297 297 295 294 292 290 290 291 291 291 289 288 288 286 284 280 273 265 257 250 246 243 241 239 238 236 236 235 236 236 236 237 237 237 237 237 237 237 238 240 241 241 241 242 242 243 243 244 245 246 246 246 246 246 246
302 301 301 302 303 303 304 304 302 299 297 298 300 302 303 304 303 302 300 299 300 304 307 309 308 304 298 295 295 296 298 298 298 296 295 293 291 290 291 291 291 290 288 287 286 285 282 277 270 263 256 250 246 243 240 239 237 236 235 235 236 236 236 236 236 236 236 236 237 238 239 240 241 241 242 242 242 243 243 244 245 245 245 245 245 245
295 296 298 300 302 303 303 302 299 297 297 299 301 302 303 303 302 300 298 297 300 305 308 308 302 296 292 294 296 297 298 299 298 296 295 292 291 289 289 289 289 288 288 287 287 286 284 280 275 269 262 255 250 245 243 241 240 238 237 236 235 235 235 235 235 235 235 236 236 237 238 239 240 241 241 242 242 242 243 243 244 244 245 245 245 245
292 295 297 300 301 302 302 299 297 297 299 301 303 303 303 302 301 299 296 297 302 306 307 302 295 291 291 294 296 297 297 297 296 295 293 291 290 289 289 288 287 287 287 287 287 286 284 281 277 272 266 258 251 247 244 244 243 242 240 237 235 234 233 233 233 233 234 235 235 236 237 238 239 240 241 241 241 242 242 243 243 244 244 244 244 245
293 296 298 300 301 302 300 298 298 299 301 302 303 303 302 302 301 298 296 298 302 304 302 295 290 289 292 294 296 297 297 296 294 292 291 290 290 289 289 288 287 287 287 287 287 285 282 279 275 269 259 248 239 235 235 237 239 240 239 238 235 233 232 231 232 232 233 233 234 235 236 237 238 239 240 240 241 241 242 242 243 243 243 244 244 244
295 296 298 300 302 302 301 300 300 301 302 302 302 302 302 301 300 298 297 298 299 297 293 289 288 290 292 294 295 296 296 294 293 291 290 289 289 289 289 288 288 288 289 290 288 285 280 276 271 263 251 240 233 230 230 231 233 236 238 237 236 234 232 232 231 231 232 232 233 234 235 236 237 238 239 239 240 241 241 242 242 243 243 243 243 243
297 298 300 301 302 302 301 301 301 302 302 302 301 301 300 299 297 296 294 293 291 289 287 287 288 290 292 292 293 294 294 293 292 292 292 291 290 289 289 289 288 288 289 287 285 282 280 279 275 267 258 252 248 245 240 234 231 232 235 237 237 236 234 233 232 231 231 231 232 233 233 234 235 236 237 238 239 240 241 242 242 242 242 242 242 242
300 301 303 303 303 303 302 303 303 303 302 301 300 299 298 297 295 292 290 288 286 286 286 288 289 290 291 291 292 293 293 292 293 293 293 293 292 291 291 290 288 286 282 279 278 279 281 281 280 275 268 263 260 256 249 240 232 230 231 234 236 236 235 233 232 231 231 231 231 231 232 233 234 235 236 237 238 239 240 241 241 242 242 242 241 241
305 305 305 304 303 303 303 303 304 303 303 302 300 299 297 296 294 292 290 288 287 288 289 290 290 290 290 291 291 292 292 293 294 294 294 293 293 293 293 292 290 287 283 281 280 280 280 279 278 275 271 267 264 260 254 245 236 230 230 232 234 235 234 233 232 231 231 231 231 231 232 232 233 234 235 236 237 238 239 240 240 241 241 241 240 240
306 304 302 302 302 303 303 303 303 303 303 302 301 300 298 297 295 293 292 290 290 290 291 291 291 291 290 291 292 293 294 294 294 294 295 294 294 294 294 293 291 290 288 286 283 281 278 277 275 273 270 267 264 261 257 250 242 236 233 233 234 234 234 233 232 231 231 231 231 231 231 232 233 234 235 236 237 238 238 239 240 240 240 240 240 239
299 297 297 299 301 302 303 303 302 302 302 301 301 300 299 298 297 295 294 293 293 293 294 294 293 291 291 293 294 295 295 295 295 295 295 294 294 293 293 293 292 291 290 288 286 283 280 277 273 270 267 264 262 259 256 251 246 241 238 237 237 236 235 233 232 231 231 230 230 231 231 232 232 233 234 235 236 237 238 238 239 239 239 239 239 239
293 295 297 300 301 302 302 302 302 302 301 301 300 300 299 298 297 296 295 295 296 296 296 294 292 291 293 295 296 296 296 296 296 295 295 295 294 294 294 294 293 291 290 288 286 284 282 278 274 269 265 262 259 256 253 249 246 244 242 241 240 238 236 233 231 230 230 230 230 231 231 232 232 233 234 235 236 236 237 237 238 238 239 239 238 238
295 297 299 300 301 301 302 302 303 302 302 301 300 299 299 298 297 296 295 296 297 296 294 291 290 291 294 296 297 297 297 297 297 297 297 297 297 297 297 296 295 293 292 289 286 283 281 278 275 270 266 261 257 254 250 247 246 245 244 244 242 239 235 232 230 230 229 230 230 231 231 232 233 233 234 235 235 236 236 237 237 237 238 238 238 238
299 299 299 300 301 302 303 303 303 303 303 302 301 300 299 298 297 296 296 296 295 292 289 288 289 292 294 296 297 297 297 297 298 299 299 300 300 299 299 299 298 297 295 292 287 283 279 277 275 271 267 262 258 254 250 247 245 244 244 243 240 237 234 231 229 229 229 229 230 231 231 232 233 233 234 235 235 235 236 236 236 236 237 237 237 237
301 301 301 302 303 304 305 305 305 304 303 302 301 300 299 298 297 296 296 295 292 289 287 289 291 294 295 297 297 297 297 298 299 300 301 301 301 300 300 300 299 299 297 295 291 285 280 275 273 271 267 263 259 254 251 248 246 244 243 241 238 235 232 230 229 228 228 229 230 230 231 232 232 233 234 235 235 235 235 235 235 236 236 236 237 238
304 304 305 306 306 307 306 306 306 305 304 303 301 300 299 298 297 296 295 293 290 289 290 292 294 296 297 297 297 297 297 298 299 301 301 301 301 300 300 300 299 298 297 296 294 289 284 277 271 269 266 263 259 255 251 249 246 244 242 239 236 233 231 230 229 228 228 229 230 230 231 232 233 233 234 235 235 236 235 235 235 236 236 237 237 238
306 307 307 308 308 308 308 307 306 306 304 303 302 300 299 298 297 296 295 293 293 293 294 295 296 297 297 296 296 296 297 298 300 301 301 301 300 300 299 299 298 297 296 294 292 290 286 281 275 269 266 262 258 254 250 248 247 244 241 237 234 232 230 230 229 229 228 229 230 231 231 232 233 234 235 235 236 236 236 235 235 236 236 237 238 239
307 308 308 309 309 308 308 307 307 306 305 304 302 301 300 299 298 298 297 296 296 296 296 297 297 297 296 296 295 295 296 298 300 301 301 300 300 299 298 297 296 295 294 292 289 287 284 282 279 274 268 262 258 254 250 248 246 243 239 236 233 231 230 229 229 229 229 229 230 231 232 233 234 235 235 236 236 236 236 235 235 236 236 236 237 238
308 308 309 309 309 308 308 307 307 306 305 304 303 302 301 301 300 299 299 298 298 298 297 297 296 296 295 295 295 295 296 297 299 300 300 299 298 297 296 295 294 293 292 290 288 285 282 280 279 277 272 264 258 254 253 250 246 242 238 234 231 230 228 228 228 228 229 230 231 232 233 234 235 235 236 236 236 236 236 235 235 235 235 235 235 235
308 309 309 309 309 309 309 308 307 307 306 305 304 303 303 302 301 301 300 299 298 298 297 296 295 295 295 296 296 295 296 297 298 298 298 296 295 294 293 292 291 291 290 288 286 284 282 279 277 276 273 267 260 255 253 249 245 240 235 232 230 228 226 225 225 226 227 229 231 232 233 235 235 236 236 236 236 236 235 235 234 233 233 232 233 233
309 309 310 311 311 310 310 310 309 308 307 306 306 305 304 303 303 302 301 300 299 298 297 296 295 295 296 296 296 297 297 298 299 298 296 294 293 291 290 289 289 288 288 286 285 284 282 279 276 274 271 268 263 255 248 244 240 237 234 231 228 226 224 223 222 222 223 225 227 230 232 233 234 234 235 234 234 234 233 233 232 231 230 230 230 231
309 310 311 312 312 312 312 311 311 310 309 308 307 306 305 305 304 303 301 300 299 298 297 296 296 296 296 297 297 298 298 299 299 297 295 293 290 289 287 287 287 287 286 285 284 283 281 279 276 273 270 268 265 256 241 234 233 233 231 228 225 223 221 220 219 218 219 220 222 224 227 229 230 231 231 231 231 230 230 229 229 228 228 228 228 229
311 312 313 314 314 314 313 313 312 311 310 309 308 307 306 305 304 303 301 300 299 298 297 297 297 298 298 298 298 298 299 298 298 296 293 290 288 287 286 286 286 286 285 285 283 282 280 279 277 273 269 266 261 252 235 226 224 224 224 223 221 220 220 218 216 215 214 215 217 219 221 223 224 225 225 224 223 223 223 224 225 226 226 227 227 228
313 314 315 316 316 315 315 314 313 312 311 310 309 307 306 305 304 302 301 300 299 299 299 299 300 300 299 299 299 299 298 297 296 293 291 288 286 285 285 285 285 285 285 283 281 280 279 278 277 275 271 265 256 242 228 221 219 217 217 215 217 219 219 216 213 211 209 211 212 215 216 217 218 217 215 214 213 213 215 218 220 222 223 224 224 225
316 317 317 317 317 316 315 314 313 312 311 310 309 308 307 306 305 303 302 301 301 301 302 302 302 302 301 301 300 299 298 296 294 292 289 287 285 284 283 284 284 284 283 281 279 277 276 275 275 273 271 265 252 234 220 215 215 214 210 207 210 216 217 213 208 204 203 205 207 208 209 209 208 207 205 205 205 206 208 210 213 215 217 218 219 219
318 318 318 318 317 316 315 314 313 312 312 311 310 310 309 309 308 306 306 305 305 305 306 306 305 304 303 302 301 300 298 295 293 291 289 287 286 284 282 282 282 281 280 278 276 274 273 272 271 270 268 263 250 232 218 213 212 210 204 202 207 212 213 210 204 199 198 201 201 200 199 198 197 197 196 196 196 197 199 201 204 206 209 211 214 215
320 319 319 319 318 317 316 315 314 314 313 313 313 313 313 313 312 311 310 309 309 309 310 310 308 307 305 304 302 300 298 296 294 292 290 289 287 285 283 281 279 278 277 276 274 272 271 270 268 265 262 257 247 235 222 215 211 209 205 204 205 208 209 207 201 195 194 193 193 192 189 186 184 183 184 184 184 185 188 190 192 195 199 204 210 215
321 320 320 319 319 318 317 317 317 317 316 317 317 318 318 318 316 315 313 311 312 312 313 312 311 309 307 305 304 302 299 298 296 295 293 292 290 288 286 284 281 278 275 275 274 272 269 268 267 265 261 254 244 235 228 218 212 209 206 205 206 207 207 205 200 192 186 182 181 180 178 174 172 170 169 168 168 170 174 179 185 193 200 207 215 220
322 321 321 321 320 320 320 320 320 320 320 320 321 322 322 321 319 317 315 314 315 315 315 314 312 311 309 307 307 307 306 304 302 301 299 297 294 292 289 287 284 281 278 275 274 273 270 269 267 264 259 253 245 236 229 222 215 210 207 205 206 208 208 205 199 189 177 170 167 166 164 161 158 158 158 161 163 167 175 184 194 202 208 212 217 219
323 323 322 322 322 322 322 322 322 322 323 324 324 325 324 323 320 318 318 318 319 318 318 317 316 316 315 316 318 319 318 316 313 311 306 302 298 294 291 289 286 284 282 279 275 272 271 271 268 262 255 250 245 239 233 227 219 213 208 205 204 204 204 203 200 190 173 162 156 153 152 151 154 160 170 177 182 185 188 193 197 200 201 202 204 205
325 324 324 324 324 323 323 324 324 325 326 327 327 327 326 324 322 321 323 324 324 323 322 322 323 325 327 331 333 334 332 327 321 315 311 306 301 296 291 288 284 282 282 281 278 274 268 264 261 256 252 249 244 239 233 227 220 214 208 204 201 200 199 199 197 190 177 165 159 159 162 168 178 188 195 193 189 187 186 187 187 187 187 187 188 188
327 326 326 325 325 325 325 326 328 329 329 330 329 329 328 327 328 329 331 331 330 329 329 330 333 336 338 340 340 337 331 325 318 312 308 305 301 296 290 285 281 277 276 275 274 272 267 258 251 246 244 243 240 234 227 222 217 212 207 203 199 196 193 192 191 187 180 177 179 186 192 195 197 196 193 189 184 181 179 179 178 177 176 176 177 178
328 328 327 326 326 327 328 330 332 332 333 333 332 333 333 336 339 341 340 339 337 337 337 340 342 344 343 341 337 330 323 317 311 306 303 300 296 292 286 279 275 270 268 265 263 260 255 249 242 236 232 229 227 225 220 215 211 207 202 199 196 192 187 185 184 182 181 185 189 193 194 192 188 186 184 182 180 178 176 176 175 174 173 174 174 175
329 329 328 328 329 330 332 334 336 336 336 337 338 340 344 349 351 350 346 345 343 343 344 345 345 344 341 336 329 322 315 311 308 305 302 299 293 287 278 269 262 257 254 251 247 244 239 233 228 225 221 217 216 215 213 209 205 201 197 194 190 185 180 179 179 181 185 189 190 190 188 185 182 180 180 180 179 179 178 178 177 177 176 177 177 178
331 330 330 331 332 334 336 338 340 341 342 344 346 350 355 358 358 355 351 348 347 346 346 345 343 340 337 331 324 319 316 314 314 315 315 310 305 290 262 233 212 201 199 205 208 208 209 209 210 208 207 207 207 206 205 202 198 195 192 188 183 178 174 175 178 183 187 189 189 188 187 186 185 185 184 184 184 184 184 184 183 182 182 182 182 182
333 333 334 335 337 339 341 343 345 347 349 352 355 359 1 1 359 356 354 351 349 347 346 344 341 337 334 331 329 330 332 339 350 5 16 23 43 69 95 110 116 120 127 139 149 155 161 171 182 189 193 195 198 199 198 194 191 189 185 180 175 171 170 175 181 185 188 189 189 190 191 192 193 194 194 194 194 194 194 193 192 190 189 188 187 186
Height
2845 2843 2841 2840 2839 2836 2834 2833 2832 2831 2827 2826 2825 2824 2822 2821 2819 2818 2817 2816 2815 2813 2811 2810 2808 2807 2806 2805 2805 2805 2805 2804 2804 2803 2803 2803 2802 2802 2802 2803 2802 2802 2802 2803 2804 2805 2807 2809 2810 2811 2812 2814 2814 2815 2815 2816 2816 2817 2818 2819 2820 2821 2821 2821 2822 2824 2825 2826 2827 2827 2828 2829 2830 2831 2832 2833 2835 2836 2837 2838 2840 2841 2843 2844 2846 2847
2841 2839 2837 2836 2835 2833 2829 2828 2828 2827 2824 2821 2820 2819 2818 2816 2814 2813 2812 2811 2810 2808 2806 2805 2803 2802 2801 2800 2800 2799 2799 2799 2799 2798 2798 2797 2797 2797 2797 2797 2798 2798 2798 2798 2798 2799 2801 2802 2804 2806 2807 2808 2809 2810 2811 2811 2811 2812 2812 2813 2814 2815 2816 2817 2818 2819 2821 2822 2823 2824 2825 2825 2826 2827 2828 2829 2831 2832 2833 2835 2836 2838 2840 2841 2842 2844
2838 2835 2833 2832 2831 2829 2826 2824 2823 2822 2821 2818 2816 2815 2814 2812 2811 2809 2807 2806 2805 2804 2802 2801 2799 2797 2796 2795 2795 2794 2794 2794 2794 2793 2793 2792 2792 2791 2791 2792 2792 2793 2793 2793 2794 2794 2795 2796 2798 2800 2801 2803 2804 2805 2806 2806 2807 2807 2808 2808 2809 2810 2811 2812 2813 2815 2816 2817 2819 2820 2821 2821 2822 2823 2824 2825 2826 2828 2829 2831 2833 2835 2836 2837 2839 2840
2835 2833 2830 2828 2827 2825 2823 2821 2820 2818 2817 2815 2813 2811 2810 2809 2807 2805 2804 2802 2801 2799 2798 2796 2795 2793 2791 2791 2790 2790 2789 2789 2789 2788 2788 2788 2787 2787 2786 2787 2787 2788 2788 2789 2790 2790 2790 2791 2792 2794 2796 2797 2799 2800 2801 2801 2802 2803 2803 2804 2805 2806 2806 2808 2809 2811 2812 2813 2814 2815 2816 2818 2819 2820 2820 2821 2823 2824 2826 2827 2829 2831 2832 2834 2835 2836
2832 2830 2828 2826 2824 2821 2820 2818 2817 2815 2814 2812 2810 2808 2806 2805 2804 2802 2800 2799 2797 2796 2794 2792 2791 2789 2788 2786 2785 2785 2785 2784 2784 2784 2783 2783 2782 2782 2782 2782 2782 2782 2783 2784 2785 2785 2786 2786 2787 2789 2790 2792 2793 2795 2796 2796 2797 2798 2799 2799 2800 2801 2802 2803 2805 2806 2808 2809 2810 2811 2812 2814 2815 2816 2817 2818 2819 2821 2822 2823 2825 2826 2828 2830 2831 2833
2829 2828 2826 2824 2821 2819 2816 2815 2814 2813 2811 2809 2806 2805 2804 2802 2801 2799 2797 2796 2794 2792 2790 2788 2787 2786 2784 2783 2781 2781 2780 2780 2779 2779 2778 2778 2778 2778 2778 2777 2777 2778 2778 2779 2780 2780 2781 2782 2783 2784 2785 2786 2788 2789 2791 2792 2793 2793 2794 2795 2796 2797 2798 2799 2801 2802 2803 2805 2806 2807 2808 2810 2811 2812 2813 2814 2816 2817 2818 2820 2821 2823 2824 2826 2828 2829
2825 2824 2823 2821 2818 2816 2815 2813 2812 2810 2808 2805 2803 2801 2800 2799 2797 2796 2794 2792 2790 2788 2786 2784 2783 2782 2781 2779 2778 2777 2776 2775 2775 2774 2774 2774 2774 2774 2774 2774 2774 2774 2774 2774 2775 2776 2776 2777 2779 2780 2781 2782 2783 2785 2786 2787 2788 2789 2790 2791 2792 2793 2794 2795 2796 2797 2799 2801 2802 2803 2804 2806 2807 2808 2809 2811 2812 2813 2815 2816 2817 2819 2821 2822 2824 2826
2822 2821 2820 2819 2816 2814 2812 2811 2809 2807 2806 2803 2801 2798 2796 2795 2793 2792 2790 2789 2787 2785 2782 2780 2779 2778 2777 2776 2775 2773 2772 2772 2771 2771 2771 2771 2770 2770 2770 2770 2770 2770 2770 2770 2771 2771 2772 2773 2774 2775 2776 2777 2779 2780 2782 2783 2784 2785 2786 2787 2788 2789 2790 2791 2792 2793 2795 2796 2798 2799 2801 2801 2803 2804 2805 2807 2808 2809 2811 2812 2814 2816 2817 2819 2820 2822
2821 2819 2818 2818 2816 2813 2809 2806 2806 2805 2803 2801 2798 2796 2793 2791 2789 2787 2786 2784 2783 2781 2779 2777 2775 2774 2773 2772 2772 2771 2770 2769 2768 2768 2768 2767 2767 2767 2767 2767 2766 2766 2766 2767 2767 2767 2768 2769 2770 2771 2772 2773 2775 2776 2778 2779 2780 2781 2781 2782 2783 2784 2786 2787 2788 2789 2791 2792 2794 2795 2796 2798 2799 2800 2801 2802 2804 2806 2807 2808 2810 2812 2813 2815 2817 2819
2820 2817 2815 2813 2811 2810 2806 2803 2801 2801 2801 2798 2796 2794 2791 2788 2786 2783 2781 2780 2779 2778 2776 2775 2772 2771 2770 2769 2769 2768 2767 2766 2766 2766 2766 2765 2765 2764 2764 2764 2763 2763 2763 2763 2763 2764 2764 2765 2766 2766 2768 2769 2771 2772 2773 2774 2775 2776 2776 2777 2778 2780 2781 2782 2784 2785 2786 2788 2790 2791 2792 2794 2795 2796 2797 2798 2800 2801 2803 2805 2806 2808 2810 2811 2813 2815
2815 2813 2811 2809 2807 2806 2804 2802 2799 2798 2797 2795 2792 2790 2789 2787 2784 2781 2778 2776 2775 2774 2773 2772 2771 2769 2767 2766 2766 2766 2765 2764 2763 2763 2763 2762 2762 2762 2761 2761 2761 2760 2760 2760 2760 2760 2760 2761 2762 2763 2764 2765 2766 2767 2768 2769 2770 2771 2772 2773 2774 2775 2776 2778 2780 2781 2782 2784 2786 2787 2789 2790 2791 2792 2793 2794 2796 2798 2799 2801 2802 2804 2806 2808 2809 2811
2811 2809 2807 2806 2804 2802 2801 2798 2796 2795 2793 2791 2788 2786 2785 2784 2782 2780 2776 2773 2771 2771 2770 2769 2768 2767 2766 2764 2763 2762 2762 2761 2760 2760 2759 2759 2759 2759 2758 2758 2758 2758 2757 2757 2756 2756 2757 2757 2758 2759 2760 2761 2762 2763 2764 2764 2765 2766 2767 2769 2770 2771 2772 2774 2776 2777 2779 2780 2782 2783 2785 2786 2787 2788 2789 2791 2792 2794 2795 2797 2798 2800 2802 2804 2806 2807
2809 2807 2805 2802 2800 2799 2797 2795 2793 2791 2790 2788 2786 2783 2781 2780 2779 2777 2775 2772 2770 2769 2768 2766 2765 2764 2763 2762 2761 2760 2759 2758 2757 2757 2757 2757 2757 2757 2756 2756 2756 2756 2755 2754 2753 2753 2754 2755 2755 2756 2756 2757 2758 2759 2760 2760 2761 2762 2763 2765 2766 2767 2769 2770 2772 2773 2775 2776 2778 2780 2781 2782 2783 2784 2786 2787 2788 2790 2791 2793 2794 2796 2798 2800 2802 2804
2805 2803 2801 2799 2797 2795 2794 2792 2790 2788 2786 2785 2783 2781 2779 2777 2776 2775 2772 2770 2768 2767 2766 2764 2762 2761 2760 2759 2759 2758 2757 2756 2755 2755 2754 2753 2753 2753 2753 2752 2751 2751 2751 2750 2750 2751 2752 2752 2752 2752 2753 2753 2754 2755 2756 2756 2757 2758 2759 2761 2762 2763 2765 2766 2767 2769 2771 2772 2774 2775 2776 2777 2778 2780 2781 2783 2785 2786 2787 2789 2790 2792 2794 2796 2798 2799
2802 2800 2798 2796 2794 2792 2791 2789 2787 2785 2783 2782 2780 2778 2776 2775 2774 2772 2770 2767 2766 2765 2764 2761 2759 2758 2756 2756 2756 2756 2755 2754 2752 2751 2750 2749 2750 2751 2750 2749 2748 2747 2747 2747 2747 2748 2749 2749 2749 2749 2749 2750 2751 2751 2752 2752 2753 2754 2756 2757 2758 2759 2761 2762 2763 2765 2766 2767 2769 2770 2771 2773 2774 2776 2777 2779 2781 2782 2783 2785 2786 2788 2790 2792 2793 2795
2800 2798 2795 2792 2791 2789 2788 2786 2785 2783 2781 2779 2777 2776 2774 2772 2771 2769 2767 2765 2763 2762 2761 2758 2756 2754 2754 2754 2754 2754 2753 2751 2750 2748 2747 2746 2746 2747 2747 2746 2745 2744 2745 2745 2745 2745 2746 2746 2746 2746 2746 2746 2747 2748 2748 2749 2749 2751 2752 2753 2754 2756 2757 2758 2759 2761 2762 2763 2765 2766 2767 2769 2770 2772 2773 2775 2776 2778 2779 2781 2782 2784 2786 2787 2789 2791
2799 2796 2793 2790 2788 2786 2785 2784 2783 2781 2778 2776 2774 2773 2772 2770 2768 2766 2765 2763 2761 2760 2758 2756 2755 2754 2751 2750 2751 2752 2752 2750 2747 2746 2745 2743 2743 2744 2745 2744 2742 2741 2741 2741 2742 2742 2742 2742 2742 2742 2743 2743 2744 2745 2745 2746 2746 2747 2748 2750 2751 2752 2753 2755 2756 2757 2758 2759 2761 2762 2763 2765 2766 2768 2769 2771 2772 2774 2776 2777 2778 2780 2782 2784 2786 2787
2796 2793 2790 2788 2786 2784 2782 2782 2780 2778 2775 2773 2771 2770 2768 2767 2766 2764 2762 2761 2759 2757 2755 2754 2754 2752 2749 2747 2747 2749 2750 2748 2745 2743 2741 2740 2740 2741 2742 2741 2740 2739 2738 2738 2739 2739 2739 2739 2739 2739 2740 2740 2741 2741 2742 2743 2744 2745 2746 2747 2748 2749 2750 2751 2751 2752 2754 2755 2756 2758 2759 2761 2762 2764 2766 2767 2769 2770 2772 2773 2775 2776 2778 2780 2782 2784
2792 2790 2788 2786 2783 2781 2780 2779 2777 2775 2773 2771 2769 2766 2765 2764 2763 2761 2760 2758 2757 2755 2755 2754 2751 2749 2747 2745 2744 2746 2747 2745 2743 2740 2738 2736 2736 2737 2739 2738 2737 2736 2735 2735 2736 2736 2736 2736 2736 2736 2736 2737 2738 2739 2740 2741 2742 2742 2743 2744 2744 2744 2745 2746 2747 2748 2750 2751 2753 2754 2756 2757 2758 2760 2761 2763 2765 2766 2768 2770 2771 2773 2775 2776 2779 2780
2788 2787 2785 2783 2781 2779 2777 2776 2774 2772 2771 2768 2766 2764 2762 2761 2759 2758 2757 2756 2755 2755 2755 2752 2749 2746 2745 2743 2742 2742 2743 2742 2740 2737 2735 2733 2733 2734 2735 2735 2734 2733 2732 2732 2732 2733 2733 2732 2732 2733 2733 2734 2735 2736 2737 2738 2739 2740 2739 2738 2738 2738 2740 2741 2743 2744 2746 2747 2749 2750 2751 2753 2755 2756 2758 2759 2761 2763 2764 2766 2768 2769 2771 2773 2775 2777
2785 2783 2782 2781 2780 2777 2774 2772 2771 2770 2768 2766 2764 2761 2759 2758 2756 2755 2754 2753 2753 2753 2751 2748 2745 2743 2742 2741 2740 2739 2740 2739 2736 2733 2731 2730 2730 2731 2732 2732 2731 2730 2729 2729 2729 2729 2729 2729 2729 2730 2730 2730 2730 2731 2731 2732 2732 2732 2733 2734 2735 2736 2737 2738 2739 2741 2742 2743 2745 2746 2748 2749 2751 2752 2754 2755 2757 2759 2761 2762 2764 2766 2768 2770 2772 2774
2783 2780 2779 2778 2777 2775 2772 2769 2767 2767 2765 2763 2761 2759 2757 2756 2754 2752 2751 2751 2750 2748 2746 2743 2742 2741 2740 2738 2737 2736 2737 2736 2733 2731 2729 2727 2726 2727 2729 2729 2728 2727 2727 2727 2727 2726 2726 2726 2726 2726 2726 2726 2726 2726 2726 2726 2727 2729 2730 2731 2731 2732 2733 2735 2736 2737 2738 2740 2741 2742 2744 2745 2747 2748 2750 2752 2753 2755 2757 2758 2760 2762 2764 2766 2768 2770
2781 2778 2776 2776 2774 2772 2769 2767 2765 2763 2762 2761 2759 2757 2755 2753 2751 2749 2748 2747 2746 2744 2742 2741 2739 2738 2737 2736 2734 2734 2733 2732 2731 2729 2727 2725 2723 2724 2725 2725 2725 2725 2724 2724 2723 2723 2723 2722 2723 2723 2723 2722 2722 2721 2721 2722 2723 2725 2726 2727 2728 2729 2730 2731 2732 2734 2735 2736 2737 2739 2740 2742 2743 2745 2746 2748 2750 2751 2753 2755 2756 2758 2761 2762 2765 2766
2778 2776 2775 2773 2771 2769 2767 2764 2762 2760 2759 2757 2755 2754 2752 2751 2749 2747 2745 2744 2743 2741 2739 2738 2736 2735 2734 2733 2732 2731 2730 2730 2728 2726 2725 2722 2721 2721 2722 2722 2721 2720 2719 2720 2720 2720 2719 2719 2719 2719 2719 2719 2718 2718 2718 2719 2720 2721 2722 2724 2725 2726 2726 2728 2729 2730 2731 2733 2734 2736 2737 2738 2740 2742 2743 2745 2746 2748 2750 2751 2753 2755 2757 2759 2761 2763
2777 2775 2773 2771 2768 2766 2764 2762 2760 2758 2756 2754 2752 2751 2749 2747 2746 2744 2743 2741 2740 2739 2737 2736 2734 2732 2731 2730 2728 2728 2727 2727 2726 2724 2722 2720 2719 2718 2719 2719 2717 2716 2715 2716 2716 2716 2716 2715 2716 2716 2716 2716 2716 2716 2716 2716 2717 2718 2719 2720 2721 2722 2723 2725 2726 2727 2728 2729 2731 2732 2734 2735 2737 2738 2740 2741 2743 2745 2746 2748 2750 2752 2754 2756 2758 2760
2776 2773 2770 2767 2765 2763 2762 2760 2758 2756 2755 2752 2750 2748 2746 2745 2743 2741 2740 2739 2738 2737 2735 2734 2732 2730 2728 2726 2725 2725 2724 2724 2723 2722 2721 2719 2717 2715 2715 2716 2714 2712 2711 2711 2711 2711 2711 2711 2712 2712 2713 2713 2713 2713 2713 2714 2714 2715 2716 2717 2718 2719 2721 2721 2722 2723 2725 2726 2727 2729 2730 2732 2733 2735 2737 2738 2740 2742 2744 2745 2747 2749 2751 2752 2754 2756
2771 2769 2766 2764 2762 2761 2759 2757 2756 2754 2752 2751 2749 2746 2745 2743 2741 2740 2738 2737 2736 2735 2734 2732 2730 2727 2725 2724 2723 2722 2721 2721 2720 2719 2718 2716 2714 2712 2712 2712 2711 2709 2708 2707 2707 2708 2707 2707 2708 2709 2709 2710 2710 2710 2711 2711 2711 2712 2713 2715 2716 2716 2717 2718 2719 2720 2721 2722 2724 2725 2727 2728 2730 2732 2733 2735 2737 2739 2741 2742 2744 2746 2747 2749 2751 2753
2767 2765 2764 2762 2760 2758 2756 2755 2753 2751 2750 2748 2746 2745 2743 2741 2740 2737 2736 2735 2734 2734 2733 2731 2727 2725 2722 2721 2720 2719 2719 2718 2717 2716 2714 2712 2711 2709 2708 2708 2707 2706 2705 2704 2704 2704 2704 2704 2705 2705 2706 2706 2706 2707 2708 2709 2710 2711 2711 2712 2713 2713 2714 2715 2716 2717 2718 2719 2721 2722 2724 2725 2727 2728 2730 2732 2734 2736 2738 2740 2741 2743 2745 2746 2747 2749
2764 2762 2761 2759 2757 2755 2753 2751 2750 2749 2747 2746 2744 2742 2741 2739 2738 2736 2734 2733 2733 2732 2730 2727 2725 2723 2721 2718 2717 2716 2716 2715 2714 2712 2711 2709 2708 2706 2706 2705 2704 2703 2702 2701 2700 2700 2701 2701 2701 2702 2702 2702 2703 2704 2705 2706 2707 2708 2708 2709 2709 2710 2711 2712 2713 2714 2715 2717 2718 2719 2721 2722 2724 2726 2727 2729 2731 2733 2735 2737 2739 2740 2741 2743 2744 2746
2761 2759 2757 2756 2754 2752 2750 2749 2747 2746 2744 2743 2741 2740 2738 2737 2735 2734 2732 2732 2732 2730 2727 2724 2722 2721 2719 2716 2714 2713 2712 2712 2711 2710 2708 2706 2705 2703 2703 2702 2701 2700 2699 2698 2697 2696 2697 2698 2699 2699 2699 2699 2700 2701 2702 2703 2704 2705 2705 2706 2706 2707 2708 2709 2710 2711 2713 2714 2715 2716 2718 2719 2721 2722 2724 2726 2728 2730 2732 2734 2736 2737 2738 2740 2741 2742
2756 2755 2753 2752 2751 2749 2747 2746 2744 2742 2741 2740 2739 2737 2736 2734 2733 2732 2731 2731 2729 2726 2724 2721 2720 2718 2716 2715 2712 2710 2708 2709 2709 2708 2706 2704 2702 2700 2700 2699 2698 2697 2697 2696 2695 2694 2693 2694 2695 2696 2696 2697 2697 2698 2700 2701 2701 2702 2702 2703 2704 2705 2706 2707 2708 2709 2710 2711 2712 2714 2715 2716 2718 2720 2721 2723 2725 2727 2729 2731 2732 2733 2735 2736 2738 2740
2753 2751 2750 2748 2747 2746 2744 2742 2741 2740 2738 2737 2736 2734 2733 2732 2731 2730 2729 2727 2725 2723 2721 2718 2716 2715 2714 2712 2710 2707 2705 2705 2706 2705 2703 2701 2699 2697 2697 2696 2695 2695 2695 2695 2694 2693 2691 2690 2691 2693 2694 2694 2695 2696 2697 2698 2699 2699 2700 2701 2701 2703 2704 2705 2706 2706 2707 2709 2710 2711 2713 2714 2716 2717 2719 2721 2722 2724 2726 2727 2729 2730 2732 2733 2735 2737
2750 2748 2747 2746 2744 2743 2741 2740 2738 2737 2735 2734 2733 2731 2730 2729 2727 2726 2725 2723 2721 2720 2718 2716 2714 2712 2711 2709 2707 2705 2703 2702 2702 2702 2701 2699 2697 2695 2694 2693 2692 2692 2692 2692 2691 2691 2690 2689 2689 2690 2691 2692 2693 2694 2695 2696 2696 2697 2697 2698 2699 2700 2701 2702 2703 2704 2705 2706 2708 2709 2711 2712 2714 2715 2717 2718 2720 2721 2722 2724 2726 2727 2729 2731 2732 2734
2747 2746 2745 2743 2741 2740 2739 2737 2736 2734 2733 2731 2730 2728 2727 2726 2724 2723 2721 2720 2718 2717 2715 2713 2711 2709 2707 2706 2704 2702 2701 2700 2700 2699 2698 2696 2695 2692 2691 2691 2690 2689 2689 2689 2689 2688 2688 2687 2687 2687 2688 2689 2691 2692 2693 2694 2694 2695 2695 2696 2697 2698 2699 2700 2701 2702 2703 2705 2706 2707 2708 2710 2711 2713 2714 2716 2717 2719 2720 2721 2723 2724 2726 2727 2729 2731
2745 2743 2742 2741 2739 2737 2736 2734 2733 2731 2730 2728 2727 2726 2724 2723 2721 2720 2718 2717 2715 2714 2712 2711 2709 2707 2705 2703 2701 2699 2697 2697 2697 2697 2696 2694 2692 2690 2689 2688 2687 2687 2686 2686 2686 2686 2686 2685 2686 2686 2686 2686 2688 2690 2691 2692 2692 2692 2693 2694 2695 2696 2697 2698 2699 2700 2702 2703 2704 2705 2706 2708 2709 2711 2712 2713 2715 2716 2717 2719 2721 2722 2723 2725 2726 2727
2742 2741 2740 2738 2736 2734 2733 2731 2730 2728 2727 2726 2724 2723 2721 2720 2718 2716 2715 2713 2712 2710 2709 2707 2706 2704 2702 2701 2698 2696 2694 2694 2694 2694 2693 2692 2690 2688 2686 2685 2685 2685 2685 2684 2684 2683 2683 2683 2683 2684 2684 2684 2686 2688 2689 2690 2690 2690 2691 2692 2693 2694 2695 2696 2697 2699 2700 2701 2702 2703 2705 2706 2707 2709 2710 2711 2712 2714 2715 2716 2718 2720 2721 2722 2724 2725
2740 2738 2737 2736 2734 2732 2730 2729 2727 2726 2724 2722 2721 2720 2718 2716 2715 2713 2712 2710 2708 2707 2705 2703 2702 2700 2699 2697 2695 2693 2691 2691 2690 2690 2690 2689 2687 2686 2684 2683 2682 2683 2683 2682 2682 2681 2681 2681 2681 2682 2682 2683 2684 2686 2687 2688 2688 2689 2690 2691 2691 2692 2693 2694 2696 2697 2699 2700 2701 2702 2703 2704 2706 2707 2708 2709 2710 2711 2713 2715 2716 2717 2718 2720 2721 2723
2738 2736 2735 2733 2731 2730 2728 2726 2724 2723 2721 2719 2718 2716 2715 2713 2711 2710 2708 2706 2705 2703 2701 2699 2698 2696 2695 2694 2692 2691 2689 2688 2687 2687 2686 2686 2685 2683 2682 2681 2680 2681 2681 2681 2680 2680 2679 2679 2679 2680 2681 2681 2683 2684 2685 2686 2686 2687 2688 2689 2690 2691 2691 2693 2694 2696 2697 2698 2699 2700 2701 2702 2704 2705 2706 2707 2708 2710 2711 2713 2714 2715 2716 2718 2719 2721
2736 2734 2732 2731 2729 2727 2725 2723 2721 2720 2718 2716 2715 2713 2711 2710 2708 2706 2704 2702 2701 2699 2697 2696 2694 2693 2692 2691 2689 2688 2687 2686 2685 2684 2683 2683 2682 2681 2680 2679 2678 2679 2679 2679 2678 2678 2677 2677 2677 2678 2679 2680 2681 2682 2683 2684 2685 2686 2686 2688 2689 2689 2690 2691 2692 2694 2696 2697 2698 2699 2700 2701 2702 2703 2704 2706 2707 2708 2710 2711 2712 2713 2715 2716 2717 2719
2734 2732 2730 2729 2727 2725 2723 2721 2719 2717 2715 2713 2711 2710 2708 2706 2704 2702 2701 2699 2697 2695 2694 2692 2691 2690 2688 2687 2686 2686 2685 2683 2682 2681 2681 2680 2680 2679 2678 2677 2677 2677 2677 2676 2676 2676 2676 2676 2676 2676 2677 2678 2679 2681 2681 2682 2683 2684 2685 2686 2687 2688 2689 2690 2691 2693 2695 2696 2697 2698 2699 2700 2701 2702 2703 2704 2706 2707 2708 2710 2711 2712 2713 2714 2716 2717
2731 2730 2728 2726 2724 2722 2720 2718 2716 2714 2712 2710 2708 2706 2705 2702 2701 2698 2696 2695 2693 2692 2691 2690 2688 2687 2686 2685 2684 2683 2682 2681 2680 2679 2679 2678 2678 2677 2676 2676 2675 2675 2675 2675 2675 2675 2675 2674 2675 2675 2676 2677 2678 2679 2680 2681 2682 2683 2684 2685 2686 2687 2688 2689 2691 2692 2694 2695 2696 2697 2698 2699 2700 2701 2702 2703 2704 2706 2707 2708 2710 2711 2712 2714 2715 2716
2729 2727 2725 2723 2721 2719 2717 2715 2713 2711 2709 2707 2705 2703 2701 2699 2697 2695 2693 2691 2690 2689 2688 2687 2686 2684 2683 2682 2682 2681 2680 2679 2678 2677 2677 2676 2676 2675 2675 2674 2673 2673 2673 2672 2672 2673 2673 2673 2673 2674 2675 2676 2676 2677 2678 2679 2681 2681 2683 2684 2685 2686 2687 2688 2690 2692 2693 2695 2695 2696 2697 2698 2699 2700 2701 2702 2703 2705 2706 2707 2708 2710 2711 2712 2714 2716
2727 2725 2723 2721 2718 2716 2714 2712 2710 2708 2706 2704 2702 2701 2699 2697 2695 2693 2691 2689 2688 2687 2686 2685 2683 2682 2681 2680 2680 2679 2678 2677 2676 2676 2675 2674 2674 2673 2672 2672 2671 2671 2671 2671 2671 2671 2671 2671 2672 2672 2673 2674 2675 2676 2677 2678 2679 2680 2681 2683 2684 2685 2686 2687 2689 2691 2693 2694 2695 2695 2696 2697 2698 2699 2700 2701 2703 2704 2705 2706 2708 2709 2711 2712 2713 2715
2725 2723 2720 2718 2716 2714 2712 2710 2708 2706 2704 2702 2700 2698 2696 2695 2693 2691 2689 2688 2686 2685 2684 2683 2681 2680 2679 2678 2677 2676 2676 2675 2675 2674 2673 2672 2671 2671 2670 2670 2670 2669 2669 2669 2669 2669 2669 2670 2670 2671 2671 2672 2673 2674 2676 2677 2678 2679 2680 2681 2683 2684 2685 2686 2688 2691 2692 2693 2694 2695 2696 2696 2697 2699 2700 2701 2702 2704 2705 2706 2708 2710 2711 2713 2714 2716
2723 2720 2718 2716 2714 2712 2710 2708 2706 2704 2702 2700 2698 2696 2695 2693 2691 2690 2688 2686 2685 2684 2683 2681 2680 2679 2678 2677 2676 2675 2674 2673 2673 2672 2671 2671 2670 2669 2669 2668 2668 2668 2667 2667 2667 2667 2668 2668 2669 2669 2670 2671 2672 2673 2674 2676 2676 2678 2679 2680 2682 2683 2685 2686 2688 2690 2692 2693 2694 2695 2696 2696 2697 2699 2700 2701 2703 2704 2706 2707 2709 2711 2713 2714 2716 2718
2721 2719 2716 2714 2712 2710 2708 2706 2704 2702 2700 2698 2696 2695 2693 2691 2690 2688 2686 2685 2684 2682 2681 2680 2679 2678 2676 2675 2674 2673 2672 2672 2671 2671 2670 2669 2668 2668 2667 2667 2666 2666 2666 2666 2666 2666 2666 2667 2667 2668 2668 2669 2670 2671 2673 2674 2675 2676 2678 2679 2681 2682 2684 2686 2688 2690 2692 2693 2694 2695 2696 2697 2698 2700 2701 2702 2704 2705 2706 2708 2710 2711 2713 2715 2717 2719
2720 2717 2715 2713 2711 2709 2707 2705 2702 2701 2698 2696 2695 2693 2692 2690 2688 2686 2685 2684 2683 2681 2680 2679 2678 2677 2676 2674 2673 2672 2671 2671 2670 2670 2669 2668 2667 2667 2666 2666 2666 2665 2665 2665 2665 2665 2665 2666 2666 2666 2667 2668 2669 2670 2671 2673 2674 2676 2677 2678 2680 2681 2683 2685 2687 2690 2691 2693 2695 2696 2697 2698 2699 2701 2701 2703 2704 2706 2707 2709 2710 2712 2714 2715 2717 2719
2718 2716 2714 2711 2709 2707 2705 2703 2701 2699 2697 2696 2694 2692 2691 2689 2687 2686 2684 2683 2682 2681 2679 2678 2677 2676 2675 2674 2673 2672 2671 2670 2670 2669 2668 2667 2667 2666 2666 2665 2665 2665 2664 2664 2664 2664 2664 2665 2665 2666 2666 2667 2668 2669 2670 2672 2673 2675 2676 2678 2679 2681 2682 2685 2687 2690 2691 2693 2695 2696 2698 2699 2700 2701 2702 2703 2704 2706 2707 2708 2710 2711 2713 2715 2716 2718
2717 2715 2712 2710 2708 2706 2703 2701 2700 2698 2696 2695 2693 2691 2690 2688 2686 2685 2684 2682 2681 2680 2679 2678 2676 2676 2675 2674 2673 2672 2671 2670 2669 2668 2667 2667 2666 2666 2666 2665 2665 2664 2664 2664 2663 2663 2663 2664 2664 2665 2665 2666 2667 2668 2669 2671 2672 2674 2676 2677 2679 2681 2682 2685 2687 2690 2692 2694 2695 2697 2698 2699 2700 2701 2702 2703 2704 2705 2706 2708 2709 2711 2712 2714 2716 2717
2716 2714 2711 2709 2707 2705 2702 2701 2699 2697 2696 2694 2692 2690 2688 2687 2686 2685 2684 2682 2681 2680 2679 2678 2676 2675 2675 2674 2673 2672 2671 2670 2669 2668 2667 2667 2666 2666 2666 2665 2665 2664 2664 2664 2663 2663 2663 2663 2664 2664 2665 2665 2666 2667 2669 2670 2671 2673 2675 2677 2679 2681 2683 2685 2688 2690 2692 2694 2695 2696 2697 2698 2699 2700 2701 2702 2703 2705 2706 2707 2709 2711 2712 2713 2715 2716
2715 2712 2711 2708 2706 2704 2702 2701 2699 2697 2695 2693 2691 2689 2688 2686 2685 2684 2683 2682 2681 2680 2679 2678 2677 2676 2675 2674 2673 2672 2671 2670 2669 2668 2668 2667 2667 2666 2666 2665 2665 2665 2664 2664 2664 2663 2663 2663 2664 2664 2664 2665 2666 2667 2668 2670 2671 2673 2675 2677 2679 2681 2683 2686 2688 2691 2692 2694 2695 2696 2696 2697 2698 2699 2701 2701 2703 2704 2706 2707 2708 2710 2711 2713 2714 2716